Location: Arroyo de San Miguel
(40.9167°N, 4.6667°W)
Time: 02:06:36
(UTC+00:00)

IRS-1C Rocket - Pass Details

Date: 19 May 2025
Orbit: 798 x 805 km, 98.8° (Epoch: 24 June)

Event Time Altitude Azimuth Distance (km) Brightness Sun altitude
Exits shadow 21:15:28 26° 137° (SE) 1,530 4.9 -16.2°
Maximum altitude 21:18:15 55° 72° (ENE) 966 4.3 -16.6°
Drops below altitude 10° 21:23:23 10° 355° (N) 2,389 7.3 -17.2°
Sets 21:25:46 0° 352° (N) 3,322 8.3 -17.5°
